Flag for Central African Republic Weather past 2 weeks in Bangui, Central African Republic

Now
73 °F

Clear.


Feels Like: 70 °F
Forecast: 70 / 84 °F
Wind: No wind

Location: Bangui Airport

Current Time: Aug 22, 2014 at 11:22:32 PM

Latest Report: Aug 22, 2014 at 10:00 PM


Visibility: 10 mi

Pressure: 29.95 "Hg

Humidity: 94%

Dew point: 72 °F

Location of BanguiLocation

Historic Weather in Bangui — Graph

°F

Bangui temperature yesterday

Maximum temperature yesterday: 79 °F (at 11:00 AM)
Minimum temperature yesterday: 72 °F (at 10:00 PM)
Average temperature yesterday: 74 °F

Past Weeks' High & Low Weather Summary

 TemperatureHumidityPressure
High93 °F (Aug 16, 2:00 PM)100% (Aug 7, 11:00 PM)30.04 "Hg (Aug 7, 11:00 PM)
Low68 °F (Aug 14, 3:00 AM)49% (Aug 16, 2:00 PM)29.74 "Hg (Aug 17, 4:00 PM)
Average77 °F86%29.92 "Hg
* Reported Aug 7 9:00 PM — Aug 22 9:00 PM, Bangui, Weather by CustomWeather, © 2014

Note: Actual official high and low records may vary slightly from our data, if they occured in-between our weather recording intervals... More about our weather records

Advertising

Bangui weather history for previous 24 hours

 ConditionsComfort  
Time TempWeatherWind HumidityBarometerVisibility
9:00 PM
Aug 22
75 °FPassing clouds.1 mph89%29.95 "HgN/A
8:00 PM77 °FThunderstorms. Passing clouds.2 mph89%29.92 "HgN/A
7:00 PM79 °FThunderstorms. Passing clouds.3 mph89%29.92 "HgN/A
6:00 PM81 °FPassing clouds.2 mph79%29.89 "HgN/A
5:00 PM84 °FBroken clouds.1 mph74%29.83 "HgN/A
4:00 PM84 °FPartly sunny.No wind66%29.86 "HgN/A
3:00 PM84 °FPartly sunny.2 mph66%29.86 "HgN/A
2:00 PM86 °FPartly sunny.6 mph62%29.86 "HgN/A
1:00 PM86 °FPartly sunny.2 mph62%29.89 "HgN/A
12:00 PM84 °FPartly sunny.2 mph66%29.95 "HgN/A
11:00 AM82 °FPartly sunny.1 mph74%29.98 "HgN/A
10:00 AM79 °FBroken clouds.2 mph84%29.98 "HgN/A
9:00 AM77 °FBroken clouds.1 mph89%29.98 "Hg4 mi
8:00 AM73 °FBroken clouds.No wind94%29.98 "Hg4 mi
7:00 AM72 °FPartly sunny.2 mph100%29.95 "Hg4 mi
6:00 AM72 °FFog.3 mph100%29.92 "Hg2 mi
5:00 AM72 °FFog.6 mph100%29.92 "Hg1 mi
4:00 AM72 °FClear.No wind100%29.89 "Hg4 mi
3:00 AM72 °FClear.2 mph100%29.89 "Hg4 mi
2:00 AM72 °FClear.1 mph100%29.92 "Hg4 mi
1:00 AM72 °FFog.2 mph100%29.92 "Hg2 mi
12:00 AM72 °FFog.No wind100%29.92 "Hg2 mi
11:00 PM
Aug 21
72 °FFog.1 mph100%29.95 "Hg2 mi
Weather by CustomWeather, © 2014

See weather overviewHow to use our weather pages